Theta_e
309 310 309 306 307 307 308 312 313 312 316 319 319 314 311 318 326 316 310 313 314 309 307 308 308 309 308 308 308 309 309 310 311 313 315 316 315 314 313 314 314 314 314 311 304 304 305 305 306 308 310 312 315 316 317 317 317 317 318 319 319 319 319 319 319 319 319 319 319 318 319 319 319 319 318 319 318 318 317 316 316 315 315 316 317 317 317
309 308 307 306 307 308 310 313 311 310 313 315 314 312 310 314 315 310 308 310 309 306 306 306 306 307 307 305 307 308 309 309 309 310 311 310 310 310 309 308 308 308 308 305 302 303 304 304 305 305 306 308 310 312 314 316 317 317 317 318 318 319 319 319 319 320 320 320 320 319 319 319 318 318 318 318 317 317 317 316 315 315 315 316 317 316 317
310 309 308 306 308 310 311 313 311 310 312 313 313 312 310 310 309 306 308 310 308 306 306 306 305 304 304 303 304 306 307 308 308 308 308 308 307 307 306 306 306 306 305 304 302 302 303 303 304 304 304 306 306 307 309 310 313 315 316 317 318 318 318 318 319 319 319 320 321 320 320 320 319 318 317 317 316 317 317 317 316 316 317 317 317 317 318
310 309 307 307 311 311 312 313 312 312 313 312 310 309 309 310 309 307 310 311 307 306 307 306 303 302 302 302 302 303 304 306 308 308 308 308 307 307 307 306 305 306 306 305 304 303 303 303 304 304 304 305 305 306 307 306 308 310 312 314 315 316 316 316 318 318 319 320 321 320 320 319 318 317 317 316 317 318 318 318 318 318 317 317 317 317 317
312 311 311 313 316 313 312 313 309 307 308 308 307 305 305 306 308 310 312 308 304 305 306 304 302 302 301 301 301 301 301 302 304 306 308 308 308 307 307 307 306 305 305 305 305 305 304 304 304 304 304 304 305 305 306 306 306 307 307 308 310 313 315 316 316 318 319 319 319 319 320 319 318 317 316 316 318 319 319 318 318 317 317 317 316 315 316
314 312 314 316 317 314 311 308 307 307 306 305 306 305 303 304 306 307 307 305 304 305 305 303 302 301 301 301 300 300 300 300 301 302 305 307 308 306 306 307 306 304 304 305 305 305 305 305 305 305 304 304 304 305 305 306 305 306 306 306 307 309 312 313 314 315 316 317 317 318 318 318 318 318 317 317 319 318 317 317 317 317 316 317 316 316 316
315 310 314 315 313 311 308 304 304 306 304 302 303 302 302 303 304 304 304 303 303 303 303 303 302 301 300 300 299 299 300 300 300 300 301 303 306 305 305 305 304 304 305 306 305 305 305 305 304 304 304 304 304 305 305 305 305 305 306 306 306 307 308 310 311 312 313 314 315 316 316 316 317 318 318 318 317 316 316 316 316 316 317 317 317 316 316
312 310 313 313 309 306 305 304 304 304 302 303 305 304 302 303 304 303 302 302 301 302 302 303 304 302 300 299 298 298 299 299 300 300 299 300 303 303 303 301 301 301 303 305 305 304 304 304 303 303 304 304 304 305 304 304 304 304 305 305 305 306 307 309 310 311 312 312 313 314 313 313 313 314 313 313 313 313 314 313 314 314 314 314 314 313 313
312 313 310 307 307 306 305 306 305 303 302 304 307 306 302 300 302 301 300 301 301 301 301 302 303 304 304 302 300 297 297 299 299 298 298 298 298 298 298 298 298 298 299 301 302 301 302 303 303 302 303 303 304 305 304 304 304 304 304 304 305 305 306 307 309 310 310 310 309 309 308 308 309 309 309 309 309 310 310 311 311 311 311 311 311 311 311
313 314 308 305 308 309 308 308 306 305 305 303 304 305 302 300 301 300 299 300 300 299 300 301 301 304 307 306 301 298 297 297 297 297 296 296 296 296 296 296 297 297 297 298 299 298 300 302 302 301 302 302 303 304 304 303 304 304 304 304 304 304 304 305 307 308 309 309 309 308 307 306 307 308 308 308 308 307 308 308 308 308 309 309 310 311 310
310 312 310 308 309 309 306 306 306 305 304 302 303 307 305 300 299 299 299 299 299 298 300 300 301 305 307 305 300 298 297 296 296 296 296 296 296 296 296 296 297 297 297 298 298 298 299 300 300 300 301 301 302 303 303 303 303 304 304 303 304 304 304 304 305 306 308 309 309 309 308 306 307 308 308 307 307 306 307 307 307 307 307 307 309 311 311
310 310 308 306 307 306 303 304 305 302 300 300 304 310 307 299 297 298 298 299 299 298 299 300 300 302 303 301 299 297 296 295 296 296 296 296 296 296 296 297 297 297 297 297 297 297 298 298 299 299 299 300 301 302 302 302 303 304 304 303 303 304 304 304 304 305 306 307 308 308 308 307 307 307 307 307 307 306 306 306 306 306 305 305 307 309 311
311 312 309 304 304 304 301 301 302 300 299 302 306 308 304 298 296 297 298 299 298 298 299 300 300 300 300 298 297 296 296 296 296 296 296 296 296 296 296 297 297 297 297 297 297 297 297 298 298 298 299 299 300 300 300 300 302 303 303 304 303 303 304 304 304 304 304 305 306 307 307 308 308 308 308 307 307 307 307 306 305 304 304 304 305 307 309
307 308 306 303 303 303 300 301 301 299 302 306 305 301 300 299 298 297 298 299 298 298 299 298 298 300 300 298 297 296 296 296 296 296 296 296 296 296 296 297 297 297 297 297 297 297 297 298 298 298 298 298 299 299 299 300 301 301 302 303 303 303 303 303 304 304 304 304 305 305 306 306 306 307 307 307 308 308 307 307 306 305 305 305 305 305 307
305 306 305 305 305 301 299 301 302 301 302 302 299 297 298 299 299 298 298 298 298 299 299 298 298 300 299 298 298 297 297 297 295 295 295 295 296 296 296 296 296 296 297 297 297 297 297 298 298 298 298 298 298 298 299 300 300 301 301 302 302 302 302 303 303 303 304 304 304 304 304 304 304 304 305 305 307 307 306 307 306 306 306 305 305 305 306
305 306 304 302 301 298 298 300 300 299 299 299 299 299 298 298 298 299 299 298 298 299 298 297 298 299 299 299 299 298 298 297 294 294 295 295 295 295 296 296 296 296 296 296 296 297 297 297 298 298 297 298 298 298 299 299 300 301 301 301 301 301 301 302 302 303 303 304 304 304 304 304 304 304 303 303 303 304 304 305 306 306 306 305 305 305 306
301 302 300 298 298 298 298 299 298 297 298 299 299 299 298 298 298 298 298 298 297 298 298 297 298 298 298 298 297 297 297 296 294 293 294 294 295 295 295 295 295 295 296 296 296 296 296 297 297 297 297 297 297 298 298 298 299 299 300 300 301 301 301 301 302 303 303 303 304 304 304 304 304 304 303 303 303 302 303 303 304 305 305 305 305 305 305
297 298 298 297 298 298 297 298 299 298 298 298 299 300 299 298 298 298 299 298 297 297 297 297 298 298 297 297 296 296 295 294 293 293 293 294 294 294 294 293 294 294 295 295 295 295 296 296 296 297 297 297 298 298 299 299 299 299 299 300 300 301 301 302 302 302 302 302 303 304 304 305 304 304 303 303 303 302 302 302 302 304 305 305 304 304 305
299 299 297 296 298 298 297 298 298 297 297 298 299 300 299 298 298 298 298 297 297 297 297 297 297 297 296 295 294 294 294 293 292 291 292 292 292 292 292 292 292 292 293 293 294 294 295 295 295 296 296 296 297 297 298 298 299 299 299 300 300 300 300 301 301 302 301 301 302 303 304 304 304 303 303 303 303 303 302 302 302 302 304 304 304 304 304
301 299 297 298 298 297 298 298 298 298 298 298 298 298 298 298 297 296 295 295 296 296 296 296 296 295 295 294 293 293 292 291 290 290 290 290 290 290 291 291 291 291 291 291 292 292 293 293 294 294 294 295 295 296 296 297 298 299 299 299 300 300 300 300 301 301 301 302 302 302 303 303 302 303 303 303 303 302 302 302 302 302 302 303 303 303 303
299 297 297 298 296 296 297 298 298 299 299 298 297 297 298 298 298 297 295 294 294 294 294 294 294 295 294 292 291 292 291 290 289 290 289 289 290 290 290 290 290 290 290 290 290 291 291 291 291 292 292 293 293 294 295 296 297 298 298 299 299 300 300 299 300 300 301 302 302 301 302 302 302 302 302 302 302 302 302 302 301 301 301 302 302 303 304
300 299 299 298 296 297 298 297 297 298 298 298 298 298 298 299 298 298 297 294 292 292 292 292 292 294 293 291 290 291 290 289 289 289 289 289 290 290 290 290 290 290 290 290 290 290 290 290 290 291 291 292 293 294 295 296 297 297 298 299 299 300 300 300 299 299 300 301 301 301 301 301 301 301 302 302 302 302 301 301 301 302 303 303 304 305 305
302 301 300 299 298 298 298 297 298 298 297 298 300 299 299 298 296 295 296 296 294 293 292 292 292 292 292 291 290 290 289 290 290 290 290 290 290 290 290 289 289 289 289 290 290 290 290 290 290 291 291 292 293 294 294 295 296 296 297 298 298 299 299 299 300 300 300 300 300 300 300 300 300 300 301 301 301 301 301 301 301 302 304 305 306 306 305
299 299 301 301 299 298 298 297 297 297 295 297 299 298 297 296 294 292 292 294 294 294 293 292 291 291 291 290 290 290 290 290 290 290 290 290 290 290 290 289 289 289 289 290 290 290 290 290 290 291 291 292 292 292 293 293 294 294 295 296 297 297 298 298 299 299 300 300 299 299 300 299 299 299 300 300 300 301 302 303 304 304 305 306 306 305 305
298 298 300 301 299 298 298 296 295 295 294 295 297 297 295 294 293 292 292 292 292 293 292 291 291 291 291 290 290 290 291 290 290 290 290 290 290 290 289 289 289 289 290 290 290 290 290 291 291 291 291 291 291 292 292 292 293 293 294 294 295 296 297 297 298 298 299 300 300 299 299 299 299 298 299 299 299 300 301 303 305 305 306 306 305 305 305
299 299 299 298 297 298 297 295 295 295 294 294 295 294 294 294 294 293 293 292 292 292 292 291 291 292 291 291 291 291 291 291 291 291 290 290 290 289 289 290 290 290 290 290 290 291 291 291 291 291 291 291 291 291 291 292 292 292 293 293 294 294 295 296 296 297 298 299 300 300 300 300 300 299 299 299 299 300 301 302 303 303 304 304 304 303 303
299 300 298 296 296 298 298 297 297 295 293 293 293 293 293 294 293 293 293 293 293 292 291 291 291 291 291 291 291 291 291 291 291 290 290 289 289 289 289 290 290 290 290 290 290 290 290 291 291 291 291 292 292 292 292 292 292 292 292 292 293 293 294 294 295 296 296 297 299 300 300 300 300 300 299 299 300 301 301 301 301 301 300 301 300 300 300
299 298 297 297 299 299 298 296 295 294 293 293 293 293 293 293 293 293 293 293 293 291 290 290 290 290 290 290 290 291 291 291 290 290 289 289 289 289 289 289 289 289 290 290 290 290 291 291 291 291 292 292 292 292 292 292 292 292 292 292 292 293 293 293 294 295 295 296 297 299 299 300 300 300 299 300 300 300 301 301 301 300 298 297 296 296 296
298 297 297 298 296 295 295 295 294 294 294 293 293 293 293 294 294 295 294 293 292 291 290 290 290 290 289 290 290 290 290 290 289 289 289 289 289 289 289 289 289 290 290 290 291 291 291 291 291 291 292 292 293 293 293 293 293 293 293 293 293 293 293 293 293 294 295 295 296 298 299 300 300 300 299 299 299 300 300 300 299 298 296 295 294 293 292
298 297 298 298 294 293 295 297 297 296 295 293 293 293 293 293 294 295 294 292 291 290 290 290 290 290 289 289 290 290 290 289 289 288 289 288 288 289 289 289 289 290 290 291 291 291 291 291 291 291 292 293 294 294 294 294 294 294 294 294 294 294 293 293 293 293 294 295 296 297 299 300 299 299 298 298 298 299 299 298 298 296 295 293 292 292 290
298 297 298 298 297 296 297 297 297 297 295 293 293 294 294 294 295 295 295 292 290 289 290 290 290 290 289 289 290 290 289 289 288 288 288 288 288 289 289 290 290 290 290 291 291 291 291 291 291 292 293 294 294 294 294 294 295 295 295 295 295 295 295 294 294 294 294 294 295 297 298 299 298 297 297 296 296 297 297 296 295 294 293 291 291 291 290
298 297 297 297 297 297 297 297 296 296 296 295 295 296 295 294 295 295 295 293 291 290 290 290 290 290 290 289 290 289 288 288 288 288 288 288 289 290 290 291 290 290 291 291 291 291 291 291 292 293 293 293 293 293 294 294 294 295 295 296 296 296 295 295 295 294 294 294 295 296 297 298 297 296 295 295 296 296 295 294 293 292 291 290 290 291 291
298 297 297 297 297 297 297 297 296 296 296 296 295 293 292 292 292 292 292 292 291 290 290 291 291 290 289 289 289 288 288 288 288 288 288 289 289 290 291 291 290 291 291 291 291 291 291 292 292 293 293 293 293 293 294 294 295 295 295 296 296 296 296 295 295 295 295 295 295 296 297 298 297 296 294 293 294 295 294 293 291 291 290 290 291 292 292
298 298 297 297 297 296 296 297 297 297 297 295 292 291 291 291 291 291 291 292 291 291 291 291 291 290 289 289 288 288 287 288 288 288 288 288 289 290 290 290 291 292 293 292 292 292 293 293 293 293 293 293 293 294 294 295 297 297 297 296 296 296 296 295 294 295 295 295 295 296 296 297 297 296 294 293 292 292 292 291 291 291 291 291 292 293 293
295 295 294 293 293 293 293 294 296 296 297 296 294 292 292 292 292 291 292 292 292 291 291 290 289 289 289 289 288 287 287 287 287 287 288 288 289 289 288 289 290 292 293 293 292 292 293 294 294 294 294 293 293 294 295 296 297 298 297 297 296 296 295 294 294 295 296 296 296 295 295 295 294 294 294 293 292 291 291 290 291 292 292 292 293 293 292
294 294 293 293 294 294 293 293 294 294 294 294 293 292 292 292 292 291 292 292 291 290 289 289 289 289 289 288 287 286 287 287 287 287 288 288 288 288 287 288 288 289 290 291 292 292 293 294 295 295 294 294 294 294 295 295 296 296 296 296 296 295 295 294 294 295 295 296 295 294 294 293 293 292 292 292 291 291 291 291 292 293 293 293 292 292 292
294 294 294 294 295 295 295 294 294 294 294 293 292 292 292 291 290 290 291 291 290 289 288 288 288 289 289 288 287 286 287 287 287 287 288 288 288 287 287 287 287 287 288 289 291 291 292 294 295 295 295 295 294 294 294 295 295 295 295 295 295 295 294 294 294 294 294 294 293 293 292 292 292 291 290 291 291 291 292 292 292 293 293 292 292 292 292
295 295 295 295 295 295 295 295 295 295 295 294 293 292 291 290 290 290 290 289 290 289 288 288 288 288 288 287 287 286 286 287 287 287 287 287 287 287 286 286 286 286 287 288 289 290 292 294 295 296 295 295 295 294 294 294 295 295 294 294 294 294 294 294 294 293 293 293 293 293 292 292 292 292 292 292 293 293 293 293 292 292 292 292 292 292 293
294 295 295 295 295 295 295 295 295 295 294 293 292 291 291 290 289 289 289 289 289 289 288 287 288 288 288 288 287 286 286 286 286 287 287 287 287 287 287 287 286 287 287 289 290 291 292 294 296 296 296 296 295 295 295 295 295 294 294 294 294 294 294 293 293 293 293 293 293 293 293 293 294 294 293 293 293 293 293 293 292 292 293 293 293 293 293
293 294 295 294 295 295 295 295 295 295 294 293 292 291 290 290 289 289 289 289 289 288 288 287 287 287 287 287 287 286 286 286 285 286 286 286 286 286 287 287 288 288 290 291 291 291 293 294 295 296 296 296 296 296 296 295 295 295 295 294 294 294 293 293 293 293 293 293 294 294 294 294 294 294 293 293 293 293 292 293 293 293 294 293 293 293 292
292 294 294 294 294 295 295 295 295 295 294 294 293 292 290 290 289 289 288 288 288 288 287 287 287 287 287 287 286 286 286 285 285 285 285 285 285 285 285 286 287 288 290 291 292 292 292 293 294 294 295 296 296 297 297 296 296 296 295 295 295 294 294 294 294 294 294 294 294 294 294 294 293 293 292 292 292 292 292 293 292 292 292 292 291 291 291
293 293 294 293 294 295 295 295 294 294 294 294 293 292 290 290 289 288 288 288 288 288 287 287 286 286 286 286 286 286 286 285 285 285 285 285 284 284 284 285 287 288 289 291 292 292 292 292 292 293 294 295 295 296 296 297 297 296 296 296 295 295 295 294 294 294 294 294 293 293 293 293 292 292 291 291 291 291 291 291 291 290 290 290 290 290 290
293 293 293 293 293 294 295 294 294 294 294 294 293 291 290 289 288 288 287 287 287 287 287 287 286 286 285 286 286 286 285 285 285 285 285 285 285 285 285 286 287 288 289 290 291 291 291 291 292 292 293 293 294 295 295 296 296 296 296 295 295 294 294 293 293 293 293 293 292 292 292 292 291 290 290 289 289 289 289 289 289 289 289 289 289 289 289
293 293 293 293 294 294 294 294 294 293 294 294 293 291 290 289 288 288 287 286 287 287 287 287 286 285 285 285 285 285 285 285 285 285 285 285 285 286 286 287 287 288 288 289 290 290 290 290 291 292 293 293 293 294 294 293 293 294 294 294 293 293 293 292 292 292 292 291 291 290 290 290 290 289 289 288 288 288 288 288 288 288 288 288 288 288 288
293 294 294 294 294 294 294 294 294 294 294 294 293 291 290 289 288 287 287 286 286 287 287 286 286 285 284 285 285 285 285 285 285 285 285 284 284 285 286 286 286 287 288 288 289 289 289 290 290 291 292 292 293 293 293 292 292 292 292 292 291 291 291 291 291 291 290 290 290 290 289 289 289 288 288 288 288 287 287 287 287 287 287 287 287 287 286
294 295 295 294 294 294 295 295 295 295 295 294 292 290 290 289 288 288 287 286 286 286 286 286 286 285 285 284 285 285 285 285 284 284 284 284 284 285 285 286 286 286 287 287 288 288 288 289 290 290 291 291 292 291 291 291 291 291 291 290 290 290 290 289 290 289 289 289 289 289 289 288 288 288 287 287 287 286 286 286 286 286 286 286 286 285 285
294 294 294 295 295 295 296 296 295 295 294 292 290 290 290 289 288 288 287 287 286 286 286 286 286 286 285 284 284 285 285 285 284 284 284 284 284 285 285 285 285 286 286 286 287 287 287 288 289 289 289 290 290 290 290 290 290 290 290 289 289 289 288 288 288 288 288 288 288 287 287 287 287 286 286 286 286 286 286 285 285 285 285 284 284 284 284
294 294 295 295 296 296 295 295 294 293 293 292 292 292 291 290 289 288 288 287 286 286 285 285 285 285 285 284 284 284 284 284 284 284 284 284 284 284 285 284 284 285 285 286 286 286 287 287 288 288 289 289 289 289 289 289 289 288 288 288 288 288 287 287 287 287 287 286 286 286 286 285 285 285 285 285 285 285 285 285 284 284 283 283 283 283 282
295 295 295 295 295 295 295 294 293 293 293 294 295 294 291 290 289 288 287 287 287 286 286 285 285 285 284 284 284 284 284 284 284 284 284 284 284 284 284 284 284 284 284 285 285 285 286 287 287 287 288 288 288 288 288 288 288 288 287 287 287 287 286 286 286 286 286 286 285 285 285 285 285 286 286 286 285 285 285 284 284 283 283 283 283 283 282
294 294 295 295 295 295 294 294 294 294 295 296 296 294 292 289 288 288 288 287 287 286 286 286 285 285 284 284 284 284 284 284 284 284 284 284 284 284 284 284 284 284 284 284 284 285 285 286 286 286 287 287 287 287 287 287 287 287 287 287 286 286 286 286 286 286 285 285 285 285 285 285 285 285 286 286 285 285 285 285 284 284 284 284 284 284 283
294 294 294 295 295 295 295 295 295 295 296 296 296 294 292 289 289 289 289 288 287 286 286 286 285 285 285 285 285 284 284 284 284 284 284 284 284 284 283 283 284 284 283 283 283 284 285 285 285 285 285 286 286 286 286 286 286 286 286 286 286 285 285 285 285 285 284 284 284 284 284 284 285 285 285 285 285 284 285 285 285 285 285 285 285 285 284
294 294 295 295 295 295 295 295 296 296 296 296 296 294 292 290 289 289 289 288 288 287 287 287 286 286 286 285 285 285 284 284 284 284 284 284 284 283 283 283 283 283 283 283 283 284 284 285 285 285 285 285 285 285 286 286 286 286 285 285 285 284 284 284 284 284 284 284 283 283 283 283 283 284 283 283 282 282 282 282 283 284 284 285 285 285 284
Wind_Speed
5 3 4 7 8 6 5 4 3 3 4 6 6 3 1 4 6 4 2 4 5 2 6 7 7 7 6 7 7 7 8 8 7 8 9 9 9 8 9 8 8 8 7 7 10 13 14 13 13 12 11 9 8 9 9 10 11 10 10 11 14 14 13 12 11 13 16 17 17 18 17 16 17 16 13 11 11 11 12 14 14 15 20 22 21 24 26
5 5 2 7 9 7 5 5 4 5 7 8 6 3 4 9 9 6 7 10 7 2 4 6 7 6 5 5 8 10 11 11 10 11 11 10 10 10 10 10 9 9 9 10 13 16 17 16 14 14 13 11 8 7 7 8 9 10 11 13 14 14 15 14 14 15 15 17 20 20 18 16 15 16 17 16 18 20 21 23 24 24 27 27 26 28 30
3 5 4 7 10 9 8 7 5 4 8 8 7 4 5 9 9 5 8 11 7 3 4 5 6 5 5 10 12 12 11 10 11 12 12 11 11 11 11 11 10 11 11 13 16 18 20 20 19 18 16 14 12 12 10 7 5 5 6 8 10 14 17 17 18 20 19 20 21 21 22 23 21 21 22 22 23 23 23 23 22 21 25 29 30 31 30
1 2 4 7 9 10 9 6 6 5 6 6 4 3 3 4 7 6 7 8 2 4 4 5 5 7 11 12 11 10 10 10 11 12 11 10 10 10 10 10 10 11 10 11 14 17 20 23 24 24 23 21 19 16 13 11 9 6 3 3 6 10 11 12 17 22 24 23 21 21 24 24 23 23 22 22 24 24 22 21 20 21 27 31 30 28 28
2 2 2 3 5 6 3 2 2 2 5 7 6 6 6 4 5 6 4 4 2 3 4 4 6 9 11 10 8 8 8 9 10 10 9 9 8 8 8 8 9 9 9 11 14 18 20 22 23 25 26 26 25 21 16 12 10 10 8 5 2 5 8 10 14 19 22 23 22 23 23 22 22 23 23 25 25 23 20 20 22 24 26 27 25 25 27
2 5 3 3 2 1 3 4 1 3 6 10 11 7 6 6 5 4 4 3 2 3 3 4 6 7 7 6 6 6 6 7 9 9 9 8 8 9 9 8 7 8 11 14 17 19 20 21 23 25 26 27 26 25 22 17 15 14 12 9 7 3 7 12 15 16 18 20 20 20 21 21 22 23 24 25 25 22 21 21 23 24 24 24 25 24 21
2 2 5 4 2 3 0 3 3 4 7 14 16 9 6 6 6 6 6 5 4 3 3 2 4 5 5 5 6 7 7 6 7 8 8 9 9 9 9 9 9 11 14 16 18 20 20 21 23 24 25 25 25 25 26 23 22 20 17 13 10 7 3 5 10 13 16 19 18 18 18 19 19 20 20 20 19 19 18 18 20 22 22 21 21 18 13
2 1 3 2 3 1 2 4 3 3 2 7 12 9 6 6 4 4 5 4 3 3 3 3 2 2 2 4 7 8 8 7 7 7 7 7 7 8 8 10 12 15 17 17 18 19 18 19 21 21 22 23 22 23 25 25 24 24 22 19 15 11 7 4 5 9 11 13 14 15 16 17 17 17 16 16 15 15 14 14 14 14 14 13 11 10 8
3 3 3 2 2 1 1 3 2 2 2 1 4 4 2 4 4 2 4 4 4 3 4 5 4 2 2 5 6 8 9 8 7 6 6 7 8 9 11 13 14 18 19 18 19 21 20 19 19 20 20 21 20 20 22 23 23 22 21 21 21 18 13 8 3 7 10 11 12 13 13 13 13 14 13 12 12 12 11 11 11 9 8 7 5 4 4
3 5 4 3 2 3 5 4 4 3 3 3 3 5 2 2 4 1 4 5 4 4 4 6 5 3 4 4 4 6 8 7 7 7 9 10 11 12 14 16 17 18 19 18 18 19 19 18 19 20 20 19 18 18 18 19 20 20 19 20 22 20 18 15 8 1 6 7 6 6 6 8 9 9 9 9 8 8 8 8 8 7 5 4 3 3 4
3 5 4 3 3 4 5 5 6 5 4 3 3 5 1 2 4 2 4 6 5 4 3 4 4 5 3 2 4 4 7 7 7 6 8 11 13 14 14 15 16 16 16 16 17 17 16 16 18 19 19 18 18 17 17 16 15 16 17 19 21 18 16 18 14 7 4 6 7 6 4 5 7 8 8 7 5 5 6 5 5 5 4 3 3 4 6
2 4 3 2 2 3 4 5 6 6 3 3 6 1 4 3 2 1 4 6 4 4 4 3 4 4 2 3 3 4 6 7 8 8 9 11 13 15 15 16 16 16 16 17 16 15 14 14 15 16 17 18 19 19 19 17 14 12 12 15 18 17 16 17 14 8 4 4 8 10 8 8 9 9 8 6 5 4 4 4 3 3 3 2 2 2 5
2 3 3 1 1 3 3 4 6 6 1 5 4 4 6 3 2 2 4 6 3 3 4 3 2 2 3 3 3 4 5 6 8 9 11 13 15 16 17 18 18 18 17 17 16 14 13 14 15 16 15 16 19 20 20 20 18 14 12 12 13 14 16 17 13 7 5 4 4 7 8 10 11 10 9 8 7 7 6 5 4 3 3 2 1 2 4
3 3 4 2 1 2 3 4 4 4 1 4 3 3 2 4 4 3 2 4 3 3 3 2 3 3 4 3 4 5 5 5 6 8 10 12 14 17 18 19 20 19 19 19 18 16 15 15 15 15 14 15 17 18 19 19 18 18 17 15 14 14 15 15 13 10 8 6 2 3 4 6 7 7 8 9 9 9 9 8 6 5 4 3 2 2 3
2 3 3 2 2 2 5 4 3 4 2 3 2 2 2 2 3 3 2 2 3 3 2 3 4 4 4 5 4 5 5 6 8 11 12 13 14 16 17 18 18 18 18 19 19 19 19 18 17 15 13 14 16 17 17 17 16 17 18 18 17 15 15 15 15 15 14 10 5 4 4 4 4 4 5 6 7 7 7 7 6 5 4 4 4 5 6
1 2 2 2 2 3 5 2 3 2 2 3 4 3 1 1 2 2 2 3 4 4 4 3 4 4 4 5 5 5 6 6 8 12 14 16 18 19 19 20 20 19 18 18 19 21 21 21 20 18 15 15 16 17 18 17 16 16 16 17 18 18 17 17 17 18 19 17 15 14 12 10 8 7 6 5 5 5 5 5 6 6 7 7 8 8 8
2 2 3 2 2 3 4 4 4 2 2 2 3 4 2 2 3 3 3 3 4 4 4 3 3 4 4 5 5 5 5 6 7 10 13 15 17 19 20 22 22 22 21 21 21 22 21 20 19 19 17 16 18 19 19 18 19 18 17 16 16 17 19 19 20 20 19 20 23 24 23 21 16 12 11 10 8 7 6 5 6 7 8 9 10 9 9
4 4 3 3 1 1 2 3 2 2 1 1 2 3 3 3 3 3 3 4 4 4 4 3 3 4 4 4 5 5 4 5 7 10 12 13 15 17 19 21 22 23 23 23 22 22 22 21 18 17 17 18 19 20 19 19 20 20 20 19 17 16 16 17 20 21 19 19 21 22 23 25 23 19 17 16 13 10 8 7 6 7 9 10 10 10 11
3 3 4 4 3 3 3 2 1 1 1 2 2 2 3 3 3 3 3 3 3 3 3 3 3 4 3 3 4 4 4 5 8 11 14 16 17 18 19 20 22 23 23 23 22 22 24 23 20 18 19 20 21 22 22 21 21 21 21 21 20 18 16 14 16 18 20 21 23 23 25 26 26 23 20 18 15 13 11 9 7 7 8 9 10 10 11
1 2 4 3 1 2 1 1 1 1 1 1 1 1 0 1 2 2 2 2 1 1 1 1 1 2 3 2 3 4 4 5 9 12 14 17 19 21 21 21 21 22 22 22 23 24 25 25 23 22 24 24 24 24 24 23 22 23 23 22 21 21 20 17 14 13 14 17 19 21 23 24 23 22 20 18 17 15 12 10 10 10 10 10 10 11 12
2 1 1 1 2 2 4 3 3 3 3 2 1 1 1 1 1 2 2 2 2 2 2 3 3 3 4 4 4 5 5 6 10 13 16 18 20 22 23 23 23 22 23 24 25 26 27 26 25 25 27 28 27 26 25 23 21 22 24 24 22 22 22 21 18 14 10 9 10 12 17 20 20 19 18 18 17 15 13 13 13 12 11 10 10 11 12
0 3 3 3 4 2 5 5 4 5 3 3 3 2 2 2 3 3 1 2 4 4 4 4 2 2 4 5 5 5 6 9 13 16 18 19 20 22 24 25 25 25 25 25 26 27 28 27 26 26 28 30 28 26 23 20 19 20 22 22 21 22 21 20 21 18 12 9 7 8 12 16 17 17 16 16 16 15 14 14 12 11 9 8 7 8 10
4 6 5 5 4 2 4 4 4 5 4 4 4 4 4 4 4 4 3 2 2 2 1 1 3 4 6 7 7 6 8 12 15 17 18 19 20 22 24 24 25 25 25 26 26 27 28 26 26 26 27 27 26 25 22 20 19 19 20 20 21 23 22 21 20 19 16 14 12 10 10 13 15 15 14 13 13 14 14 13 11 10 9 8 7 7 9
2 4 5 5 3 3 4 4 4 5 5 5 5 4 4 4 4 5 5 5 4 3 4 5 6 7 8 8 8 8 11 15 17 18 19 21 22 23 23 23 23 24 24 24 25 26 27 26 25 26 26 26 26 25 25 25 24 22 22 22 22 23 23 23 21 19 17 16 16 15 13 14 16 16 13 10 9 10 11 12 12 11 11 10 10 9 9
2 3 5 4 4 4 4 2 2 3 3 3 3 3 3 3 5 8 7 6 5 4 4 5 8 9 9 10 11 12 14 17 19 20 21 22 22 22 22 22 23 23 24 24 25 26 26 26 26 26 27 27 27 26 27 27 27 26 24 23 23 24 24 24 22 20 18 17 17 19 19 18 18 17 15 13 11 9 8 10 11 12 12 11 10 10 9
4 4 3 3 2 2 1 1 1 3 2 1 2 2 2 2 4 7 5 3 2 2 5 7 10 12 12 12 14 14 15 18 21 21 20 20 21 21 21 22 23 24 24 25 25 25 26 26 26 27 27 28 27 27 28 28 28 28 28 26 26 26 26 25 24 23 21 19 17 19 20 20 20 20 20 20 19 16 14 12 12 11 11 11 10 9 10
4 4 4 3 1 3 2 1 3 4 2 3 5 4 2 3 2 2 1 1 4 7 9 10 11 13 14 14 15 15 17 19 19 18 18 19 20 21 21 22 23 23 24 24 25 25 25 25 25 26 27 29 29 29 29 28 29 30 30 29 28 28 28 27 27 26 24 22 20 18 19 20 22 23 24 24 24 22 19 17 16 14 13 12 12 12 12
3 3 3 3 3 5 4 3 4 2 2 4 5 3 2 3 4 3 1 2 6 8 10 11 12 13 13 14 15 15 16 17 17 17 18 19 20 21 22 22 21 21 22 22 22 22 22 23 23 24 26 28 28 28 27 27 28 29 30 30 29 29 29 29 29 29 28 26 24 22 22 22 22 24 26 26 25 22 20 19 18 17 16 15 15 14 13
3 2 2 3 4 4 3 2 3 3 3 3 3 1 1 2 2 1 2 4 5 6 8 10 13 13 13 14 14 14 14 15 16 17 18 19 20 21 20 19 18 19 19 18 19 19 20 21 22 24 25 26 25 24 24 25 26 27 28 28 29 29 29 28 28 29 30 29 27 25 25 25 24 25 26 26 25 22 21 20 20 20 19 19 19 19 19
3 2 2 2 1 4 4 3 3 3 2 1 2 1 1 1 2 3 4 5 6 6 8 10 11 13 14 14 14 14 15 16 17 18 19 19 19 18 16 15 16 17 17 18 19 20 21 22 23 24 25 25 24 22 22 23 24 26 27 27 28 28 28 28 27 27 28 28 28 27 25 25 26 26 25 25 24 23 23 22 22 22 23 24 25 26 26
2 2 2 1 2 4 4 3 4 4 3 2 1 1 2 2 3 4 5 5 5 7 9 10 11 12 13 14 15 15 16 17 18 18 17 17 15 14 14 15 15 16 18 19 20 21 22 23 24 25 26 26 23 21 19 20 22 23 25 27 28 28 29 28 27 27 27 27 28 27 25 25 25 26 27 26 25 24 24 24 24 25 26 27 27 28 29
2 2 3 2 2 2 2 3 4 4 3 1 1 3 4 4 4 5 5 5 7 9 10 10 10 11 14 15 15 15 15 16 17 16 14 15 15 14 15 16 16 17 17 18 19 21 21 23 25 27 27 25 22 19 17 16 18 21 23 25 26 27 28 28 27 27 26 26 27 27 26 25 24 25 26 27 27 27 26 26 27 27 28 28 29 29 29
3 2 2 1 1 1 2 3 4 4 4 3 3 6 8 7 7 8 8 9 10 11 11 9 10 12 14 14 14 14 15 15 14 13 14 16 17 16 16 17 17 16 16 17 19 21 23 24 27 29 27 24 22 19 14 11 14 17 21 23 24 24 26 27 27 26 25 25 26 26 26 25 25 25 25 25 27 29 29 29 28 28 27 27 29 29 27
5 4 5 5 4 4 5 4 4 4 4 5 6 8 9 10 10 10 11 11 10 10 10 9 9 11 12 12 12 13 13 11 10 11 15 17 17 17 17 18 17 16 16 18 22 25 26 26 28 29 27 24 22 19 14 6 2 5 8 12 16 20 22 22 23 23 22 21 22 24 25 25 25 26 26 24 25 27 29 29 29 28 26 26 27 27 25
6 4 5 5 5 6 7 6 5 5 4 4 5 8 9 10 10 9 9 9 8 8 7 7 7 8 9 10 12 13 13 11 11 12 15 16 17 17 17 18 19 19 19 21 24 26 26 26 27 28 27 26 25 23 19 15 13 10 8 4 8 14 17 18 18 19 18 18 19 22 24 24 25 26 28 27 27 27 28 29 30 30 29 27 26 25 23
6 4 4 5 5 5 6 7 7 7 7 6 7 8 9 8 6 5 5 5 4 4 5 5 6 7 8 9 10 11 11 12 13 14 14 15 16 16 17 18 21 21 21 21 25 26 25 24 25 26 27 28 28 26 24 22 20 19 18 17 17 17 17 17 17 17 17 17 19 20 21 23 24 25 26 28 29 28 28 28 29 29 28 27 26 24 23
6 7 7 7 6 5 5 6 6 7 7 7 7 7 5 3 1 1 1 1 1 2 4 4 5 5 6 7 9 10 11 12 13 13 13 13 14 16 18 20 21 21 19 20 23 25 24 22 22 24 26 28 29 28 27 26 25 24 24 24 23 23 22 20 19 18 17 18 20 21 21 22 23 22 24 27 29 28 28 28 27 26 26 26 24 23 22
6 7 8 9 8 7 6 5 5 7 8 8 6 4 3 3 2 1 1 1 1 1 3 3 3 3 3 5 9 11 13 13 13 13 13 13 13 15 17 19 20 19 17 18 21 22 21 21 21 22 23 25 27 28 28 28 28 27 27 26 26 26 26 24 23 23 22 22 23 23 24 24 25 25 25 27 28 27 26 25 25 24 24 23 22 21 19
6 6 8 9 9 7 6 7 8 9 9 8 6 4 4 4 3 2 1 0 1 0 2 2 3 3 3 4 7 10 12 13 13 14 14 14 12 12 14 17 18 17 16 17 19 19 18 18 19 21 22 22 23 25 26 28 29 29 29 28 27 27 27 26 26 25 25 25 25 26 25 26 26 25 25 25 25 24 23 23 23 23 22 21 19 17 15
7 8 9 10 9 8 8 9 10 10 9 9 8 5 6 6 4 3 2 1 2 1 1 1 2 3 3 3 5 7 9 11 13 14 14 14 13 14 15 18 20 19 17 17 18 18 16 15 17 19 20 20 20 21 23 24 26 28 28 28 28 27 26 26 26 25 24 24 25 25 25 24 24 23 23 22 22 22 21 21 20 20 19 18 17 16 16
10 11 11 11 10 10 9 10 11 12 11 11 10 6 7 7 5 4 3 2 3 3 2 1 2 3 3 3 3 4 7 9 12 13 14 15 15 14 13 15 18 19 18 16 16 16 16 16 16 16 17 17 17 17 18 20 22 24 25 26 26 26 26 25 25 25 25 24 24 24 24 23 23 22 22 21 21 20 20 19 18 18 18 18 18 18 19
11 12 12 11 11 11 11 11 12 11 11 11 8 6 8 7 5 5 4 3 4 4 4 3 2 3 3 4 3 3 5 7 9 11 13 15 15 13 11 13 16 18 17 15 15 15 16 16 16 16 15 15 14 14 14 16 18 20 21 22 23 23 23 24 24 23 23 24 24 24 23 23 23 22 22 21 21 20 20 20 20 20 20 20 20 19 19
14 14 12 12 13 13 13 13 12 11 11 10 7 7 9 8 6 6 5 4 4 5 5 5 4 3 4 4 3 3 4 5 6 7 9 12 13 13 12 13 14 15 15 15 16 16 16 16 16 15 14 13 13 13 14 15 16 18 19 20 20 21 21 22 22 22 22 22 23 23 22 22 22 22 22 22 22 22 22 22 21 21 20 20 19 18 17
16 15 14 15 15 15 14 13 12 10 9 9 7 8 10 10 8 7 6 5 5 5 6 6 5 4 4 4 4 5 5 4 5 5 6 9 12 13 13 13 13 13 14 15 16 17 17 16 15 13 12 12 12 13 15 17 18 18 19 19 20 20 21 21 21 21 22 22 22 22 22 22 22 23 23 23 22 22 22 22 21 20 20 19 17 17 16
16 17 18 18 17 16 15 14 13 12 11 10 8 9 12 11 9 7 6 5 4 6 7 7 6 5 4 5 5 5 5 5 5 5 6 7 8 10 11 11 12 12 13 14 16 17 17 16 14 12 12 12 13 14 16 18 19 20 21 21 22 22 22 22 22 22 22 22 22 22 22 22 22 22 22 22 21 21 21 20 19 18 17 16 15 14 13
17 19 20 19 18 18 18 17 15 14 12 9 6 9 12 13 10 8 7 5 4 4 6 7 7 6 5 4 5 6 5 5 6 6 7 7 7 7 8 9 10 11 12 13 15 16 16 15 14 14 14 14 14 16 17 19 20 20 21 22 23 23 24 23 23 23 22 22 22 22 21 21 21 20 20 19 19 18 17 16 15 14 13 12 12 11 10
17 17 18 19 19 19 19 18 15 12 9 7 7 10 14 15 13 10 8 6 4 4 5 6 7 7 5 4 4 5 6 6 7 7 7 7 6 6 6 7 8 10 11 13 14 15 14 14 14 15 15 15 16 17 18 19 20 20 21 21 21 21 21 21 21 21 21 20 20 20 20 19 18 18 17 16 15 14 13 12 11 10 9 8 7 6 6
18 17 18 20 21 20 17 15 13 11 11 11 12 13 16 17 16 12 10 9 7 6 5 6 7 8 7 4 3 5 6 6 5 5 5 5 5 5 5 7 8 9 10 12 13 14 13 13 14 14 15 15 17 18 18 19 20 20 21 21 20 20 20 19 19 19 19 19 19 19 19 18 18 17 17 16 15 14 13 12 11 10 9 8 7 5 4
19 18 18 19 19 17 15 13 12 13 14 15 15 15 16 18 17 15 14 13 11 9 8 7 7 7 8 6 6 6 6 4 3 3 4 4 4 4 4 5 7 8 9 11 13 13 13 13 13 14 15 16 17 18 18 19 19 20 20 20 20 20 20 19 18 18 18 18 19 19 19 19 18 18 17 17 16 15 14 14 14 13 11 10 9 8 7
18 17 16 16 16 16 16 15 14 15 16 17 16 16 15 17 18 17 17 17 15 13 11 10 8 8 8 8 7 7 7 6 5 5 4 2 1 2 3 4 5 6 8 10 11 12 12 12 13 14 14 15 16 17 17 18 19 19 19 19 19 19 19 19 19 19 19 19 19 18 18 17 17 17 16 16 14 14 13 13 12 12 11 11 10 9 8
18 17 17 17 18 18 18 18 18 17 17 17 16 15 16 19 22 22 21 20 19 17 15 14 12 11 11 10 9 8 8 8 8 6 5 4 3 2 3 3 4 5 7 8 10 11 12 12 12 12 13 14 15 15 16 17 17 17 17 17 17 17 17 18 18 19 19 19 19 18 17 16 15 16 15 14 13 13 12 12 11 11 11 10 10 10 10
20 19 19 18 17 17 18 19 19 18 17 16 16 16 18 21 23 22 21 22 22 21 19 18 16 15 15 14 12 11 10 9 8 7 6 5 4 3 3 4 5 5 6 8 9 10 11 12 13 13 13 13 14 14 14 14 15 15 14 15 15 16 16 16 16 16 16 17 17 17 16 15 14 14 13 13 13 12 12 11 11 10 10 10 10 10 10
Wind_Direction
14 39 93 99 95 89 82 75 57 30 40 73 97 124 144 116 124 154 170 95 91 343 322 339 342 344 1 11 14 22 24 21 25 32 33 31 28 26 27 24 23 29 30 24 28 33 35 43 52 57 62 68 80 91 101 113 122 133 158 181 192 195 188 177 171 172 174 175 177 181 181 171 162 163 166 175 191 201 206 211 225 246 248 240 233 233 239
30 22 76 113 104 95 71 49 50 80 80 77 77 70 78 91 102 125 115 89 72 2 325 340 341 332 344 26 36 36 34 29 33 41 40 35 32 30 30 30 31 33 30 26 26 25 24 26 34 43 48 50 56 65 81 105 114 115 126 140 150 154 150 144 145 151 161 168 166 167 171 168 173 192 204 217 230 230 225 223 224 230 234 230 226 231 240
25 1 43 94 98 100 85 50 27 70 82 66 46 41 70 84 92 109 102 87 63 358 345 348 339 339 25 43 42 38 35 32 40 48 44 38 37 34 32 33 34 34 33 30 28 25 21 20 23 28 32 37 44 46 48 63 94 130 152 159 167 168 164 163 166 169 175 178 176 178 182 185 196 208 211 216 221 217 213 212 215 224 230 228 226 231 240
230 345 77 102 96 88 77 45 7 26 68 74 55 36 44 100 129 125 93 90 82 311 338 351 355 32 49 46 39 38 36 33 41 49 46 42 42 36 33 34 32 32 30 26 26 27 27 27 27 25 25 28 29 29 33 45 57 70 111 183 215 206 187 177 179 180 181 184 189 188 186 194 208 210 208 211 209 203 201 206 213 223 228 228 228 233 239
227 307 86 124 91 74 50 341 352 75 103 109 92 51 28 53 123 126 112 135 197 303 353 21 30 43 51 48 41 41 38 35 40 45 43 42 40 37 36 33 30 30 27 25 28 29 28 28 25 22 25 27 25 22 22 27 35 39 45 60 132 197 185 178 181 181 181 185 189 190 194 207 214 206 204 206 202 198 203 212 215 218 223 226 229 234 239
219 287 355 52 60 129 261 281 247 156 130 112 97 67 28 31 62 99 117 115 73 19 28 59 60 54 53 49 45 47 49 46 43 40 37 35 33 31 30 27 24 23 25 28 29 29 28 27 24 22 23 24 26 28 28 25 23 21 20 30 46 106 177 191 197 195 194 195 195 197 202 206 203 197 200 204 202 205 215 221 218 214 217 223 223 225 228
167 310 37 55 244 218 269 1 56 111 114 103 96 77 36 36 54 74 78 61 42 30 24 58 97 91 74 55 43 39 39 44 48 42 33 30 29 26 21 16 10 8 14 20 23 25 26 22 21 22 19 16 19 26 27 26 26 24 22 21 24 37 85 174 194 199 202 201 198 197 193 188 187 190 194 195 195 198 202 204 205 204 204 206 206 205 203
145 85 75 147 214 188 26 359 37 107 110 88 85 64 17 6 25 70 79 56 21 14 0 325 246 174 92 49 39 32 24 26 39 40 31 25 23 22 19 13 7 4 7 10 12 15 16 17 18 17 12 7 6 11 18 20 18 20 25 25 20 18 26 58 134 154 165 168 162 159 159 158 159 161 162 162 161 161 161 159 163 168 169 173 178 180 185
146 121 99 109 108 129 222 287 284 200 262 310 102 102 22 344 351 40 99 77 33 19 5 333 303 279 37 22 17 17 13 12 20 24 25 24 19 16 17 16 16 16 15 15 13 8 3 6 14 15 11 5 356 357 9 15 10 11 18 20 16 14 16 21 76 128 133 135 135 135 138 140 141 142 143 143 141 139 139 136 136 139 142 148 164 182 200
112 102 97 97 130 216 220 240 270 277 273 261 145 119 114 340 337 334 122 99 61 47 25 354 347 40 48 1 330 348 0 0 3 8 12 15 14 13 14 14 15 17 18 19 20 15 7 2 2 2 4 2 352 351 2 9 6 5 5 1 359 2 9 9 354 237 164 154 150 147 144 142 145 147 146 143 144 145 145 137 129 130 136 141 166 211 233
116 118 141 168 189 226 235 248 276 293 267 232 101 86 120 294 314 308 115 100 82 83 65 17 31 68 63 288 284 330 348 344 348 353 353 359 2 1 3 6 5 6 8 7 10 16 15 5 357 352 350 349 345 346 353 357 360 360 353 349 349 349 355 359 350 321 242 211 203 200 195 175 167 166 162 158 160 159 153 143 126 120 121 120 144 200 225
155 139 150 170 192 228 252 255 277 299 269 144 100 109 238 240 294 301 103 98 90 93 91 60 64 92 152 242 284 330 336 328 333 341 342 345 347 346 348 353 353 352 354 354 357 3 4 359 354 352 349 342 334 332 334 334 337 343 337 336 341 339 338 345 346 336 318 255 217 210 213 207 191 182 180 183 194 195 181 169 152 136 131 120 124 188 221
71 108 111 74 242 253 281 279 292 312 313 134 140 217 221 181 201 228 112 113 122 100 89 86 103 165 214 241 282 308 317 316 321 333 336 335 336 337 339 343 346 345 344 344 343 343 343 343 343 346 347 341 333 330 327 319 313 313 312 315 321 324 327 335 333 322 332 329 247 216 209 204 199 196 195 198 205 209 205 198 188 173 158 142 148 204 223
34 91 105 93 241 296 327 309 314 345 79 166 195 219 165 141 186 205 123 128 155 132 114 144 190 236 274 290 291 296 305 307 309 318 325 329 332 334 336 339 342 340 336 335 333 329 330 331 331 333 333 329 326 328 326 319 309 303 299 298 302 304 308 316 314 305 314 328 295 227 211 199 196 197 200 206 210 207 202 200 192 177 166 170 198 225 239
40 70 83 112 157 318 327 321 346 18 76 159 153 106 98 139 177 177 155 174 181 160 167 220 240 263 287 290 290 299 305 311 319 323 327 330 330 331 332 334 336 333 327 325 324 321 320 319 320 321 318 311 310 311 312 316 316 307 295 287 286 288 291 294 294 291 296 300 281 238 222 207 197 188 181 188 197 198 194 192 189 183 187 205 219 226 232
54 94 110 149 199 293 323 12 83 62 72 120 125 121 120 187 184 169 169 205 217 191 176 217 259 275 288 294 301 309 311 315 320 323 327 329 329 329 329 328 329 328 321 316 314 313 313 313 313 312 307 299 296 294 294 301 310 311 302 291 283 278 275 276 279 278 278 278 274 269 268 263 248 230 215 198 188 190 192 191 192 194 199 206 213 218 220
62 106 132 153 215 300 0 52 94 101 63 71 126 141 150 192 205 191 165 190 223 205 181 205 245 252 267 284 294 297 298 303 311 315 320 323 323 324 324 323 324 323 318 314 312 309 308 309 309 308 306 300 292 288 288 292 297 300 304 304 296 284 273 268 266 265 263 264 267 268 270 268 257 242 234 228 216 207 203 197 198 202 204 209 214 218 220
89 75 108 144 150 91 56 53 67 101 98 142 157 152 170 199 201 193 176 188 210 203 186 200 230 241 258 277 287 293 298 303 309 314 314 313 314 314 314 315 316 315 313 312 309 306 306 307 305 303 303 300 294 291 291 292 292 292 294 297 297 296 287 273 263 259 256 256 256 255 256 256 251 242 234 228 220 216 211 203 202 207 212 216 218 220 220
125 111 161 177 164 151 145 122 74 67 144 202 178 167 198 202 188 190 191 190 199 199 191 201 234 255 274 304 311 311 315 312 311 312 310 308 309 308 306 308 309 309 307 305 303 301 300 301 302 302 299 296 294 292 292 291 291 292 291 288 286 287 289 284 272 261 256 254 252 250 249 246 238 231 225 220 215 211 206 201 203 209 218 225 228 228 222
128 165 181 188 190 210 205 168 183 203 206 221 269 350 160 164 173 208 212 201 211 266 317 350 352 327 336 349 325 310 306 300 301 304 304 306 307 306 305 305 304 303 301 298 297 296 294 294 297 297 294 292 291 292 293 291 290 290 288 284 280 278 279 281 281 272 260 253 251 254 252 238 221 212 211 212 213 213 213 220 229 232 232 236 241 242 231
24 296 201 78 60 306 293 289 269 255 236 213 227 16 71 137 212 264 302 343 18 34 33 50 52 7 328 312 300 300 301 298 300 303 303 303 304 303 303 303 301 298 295 292 291 291 291 293 295 292 289 288 287 288 291 291 287 285 283 279 275 272 271 270 270 272 271 256 245 251 250 234 218 210 209 210 214 220 226 235 239 239 239 241 245 246 237
92 240 213 146 134 222 254 249 254 262 238 182 169 185 204 222 231 234 279 13 42 69 85 82 58 328 292 289 291 293 297 299 301 302 302 301 301 302 302 302 300 295 292 290 289 288 289 291 292 289 287 287 286 286 288 289 286 282 278 275 273 270 269 269 265 261 259 257 256 267 260 239 223 214 210 208 211 215 219 224 227 227 228 229 235 237 232
213 229 211 169 150 201 229 220 239 251 215 167 175 202 214 223 222 205 177 126 61 57 107 246 271 265 268 285 293 292 297 301 299 299 299 298 299 301 301 300 298 295 292 290 288 287 288 289 289 287 286 285 285 285 285 286 284 280 278 278 277 273 269 270 269 264 259 257 258 265 263 243 225 216 211 210 210 212 213 213 213 214 214 210 209 216 223
206 232 208 178 165 201 214 210 230 235 200 179 191 207 210 215 203 176 163 166 179 207 237 256 272 274 275 289 299 298 301 304 302 299 298 297 296 297 298 297 295 293 291 290 287 287 289 289 286 285 283 281 281 282 282 282 280 278 276 274 273 272 270 268 269 268 265 259 251 247 251 244 228 219 213 207 203 203 202 200 199 203 206 206 208 213 221
156 203 199 174 170 200 220 224 234 235 208 181 187 194 190 179 167 163 168 186 201 216 252 285 301 302 296 297 303 302 300 302 301 300 299 298 297 297 296 295 294 291 289 289 287 286 286 285 283 282 280 279 278 277 276 276 275 273 271 267 264 265 266 266 266 265 263 259 249 242 240 236 225 217 214 210 203 191 179 179 187 192 194 197 203 211 214
155 161 142 107 146 214 273 14 288 265 266 131 137 156 144 130 157 171 176 188 226 302 321 315 312 312 309 303 301 300 298 298 300 301 300 299 299 299 297 295 294 293 291 290 287 285 284 282 281 280 277 277 277 274 272 270 269 266 264 261 258 258 259 260 263 263 260 257 249 239 232 229 225 223 220 214 205 193 176 165 164 170 175 180 185 192 199
169 157 124 84 338 290 287 220 227 259 272 127 134 137 100 62 77 130 150 357 340 340 339 331 320 316 315 311 307 303 300 300 302 304 305 304 302 301 300 299 298 296 295 292 289 287 286 284 281 279 277 277 278 276 272 269 265 261 258 256 253 253 252 252 253 255 255 253 250 243 236 230 225 222 218 211 201 192 184 174 164 159 161 167 174 183 192
187 187 148 150 211 239 238 219 211 210 161 146 146 130 58 26 31 50 54 313 325 331 334 335 331 323 317 315 312 307 305 307 309 311 311 308 305 304 304 304 303 302 300 298 295 294 292 289 284 281 281 283 283 279 275 269 262 257 255 252 249 247 246 243 242 244 246 246 245 242 239 232 224 216 212 207 200 192 186 179 170 163 161 163 166 171 175
215 227 192 189 201 198 179 144 139 145 150 160 161 133 48 349 347 347 270 279 302 309 311 322 330 328 322 317 313 311 313 316 316 313 311 310 310 311 311 312 313 313 310 307 307 306 303 300 296 291 293 297 296 289 281 272 261 253 250 247 245 243 241 239 236 235 236 237 236 235 235 231 224 216 209 204 197 188 180 173 168 165 164 163 160 157 157
242 266 258 241 172 139 145 151 158 175 185 149 146 208 277 257 262 273 273 274 281 284 289 302 316 324 325 322 319 319 320 319 316 314 314 315 316 317 322 327 330 327 321 318 319 320 318 316 313 310 311 314 311 303 293 281 268 258 249 243 240 238 237 236 233 230 229 228 226 227 228 227 223 217 209 199 190 183 176 170 168 166 164 162 161 157 155
236 341 2 59 120 137 169 187 181 197 211 162 135 286 302 293 264 267 269 270 273 279 288 295 303 313 322 325 326 327 326 324 321 319 319 324 329 335 344 348 340 328 320 320 326 329 328 326 325 325 327 326 321 311 300 285 272 262 251 243 238 235 233 231 229 226 224 221 218 218 218 217 214 209 201 190 181 175 170 167 167 166 163 161 160 158 156
170 352 9 47 112 145 191 185 169 195 230 229 194 254 259 251 250 256 258 262 272 283 291 295 300 312 324 330 332 333 333 330 327 325 330 341 351 358 359 353 340 330 326 329 334 337 335 333 334 337 339 336 330 323 310 287 269 258 248 240 235 231 228 225 221 220 219 216 213 211 209 206 203 199 192 184 176 172 170 166 164 163 162 160 159 159 158
164 277 302 247 153 167 211 204 187 202 229 239 240 249 255 253 251 254 258 262 272 286 294 298 308 324 335 338 339 340 339 335 333 336 346 357 8 11 4 354 346 343 342 345 350 353 351 347 347 349 349 346 343 342 334 299 270 260 251 243 234 225 220 217 214 211 210 210 208 205 202 200 198 194 188 180 173 171 169 165 161 159 159 159 158 158 158
185 212 226 211 187 184 197 200 194 208 233 256 261 259 263 265 264 265 267 265 271 287 302 311 323 338 347 349 347 347 346 340 336 341 351 4 15 13 4 359 0 2 2 3 5 6 5 1 359 360 1 1 5 12 20 23 332 287 270 249 229 214 206 204 200 196 195 198 198 197 195 194 192 189 184 177 170 167 163 158 156 155 154 154 156 158 160
208 218 236 232 212 193 186 185 192 210 228 256 267 266 273 282 282 280 278 273 277 299 322 335 343 353 3 1 354 351 349 345 342 347 357 12 20 14 7 8 12 12 11 12 12 12 10 9 10 12 13 17 24 33 45 61 71 72 71 103 164 175 178 179 177 177 180 183 183 184 183 181 180 181 179 174 168 163 156 152 152 153 153 154 157 159 161
214 217 234 236 224 209 202 205 215 224 232 247 267 276 284 292 298 300 295 286 294 330 356 3 3 11 17 8 355 350 354 355 356 359 8 18 22 18 15 17 16 11 7 6 9 12 14 14 19 24 26 28 34 42 53 64 73 78 84 92 105 121 135 147 154 159 164 168 168 168 170 169 169 170 168 162 158 155 151 149 151 153 155 157 160 161 162
216 209 210 216 218 220 224 224 229 241 256 271 281 280 275 269 269 344 332 323 10 18 13 13 18 29 29 10 357 4 16 16 9 8 14 22 25 24 24 23 18 11 3 357 360 8 14 19 26 33 36 37 41 47 56 65 73 78 84 89 96 104 112 120 126 131 137 145 149 150 151 151 150 149 148 146 146 147 147 147 149 153 156 160 163 163 163
214 212 214 216 213 214 223 234 251 269 279 286 285 263 222 187 159 139 56 30 50 16 7 20 44 57 46 15 6 15 26 27 20 16 20 25 29 31 31 26 18 9 359 354 358 7 18 27 35 40 42 44 48 54 60 66 72 76 79 83 89 95 100 103 106 110 114 120 127 130 132 132 131 131 133 136 138 141 143 146 151 155 158 160 162 163 165
203 210 216 215 211 214 230 248 266 276 280 282 278 245 194 177 171 165 131 99 130 343 347 24 65 71 57 26 16 18 23 27 27 26 26 28 33 38 39 34 27 19 11 9 14 21 28 35 41 45 46 48 53 59 65 70 74 76 78 81 84 87 92 95 98 101 105 109 113 116 119 121 122 124 126 129 134 140 146 151 155 157 157 158 161 165 168
202 210 211 209 210 219 234 251 269 278 281 286 284 251 197 179 173 163 153 157 168 191 306 16 73 76 69 53 31 23 24 29 33 36 37 35 37 40 38 33 31 31 30 29 31 34 38 42 47 51 51 52 55 59 65 71 76 79 81 84 85 87 89 92 95 98 103 108 112 114 116 119 121 124 126 132 138 143 147 151 153 154 155 157 160 163 164
209 213 211 208 212 222 233 250 267 277 287 297 294 255 201 186 180 172 169 168 167 168 168 121 90 87 91 92 68 39 33 35 38 42 44 40 38 37 31 24 27 34 38 37 37 40 46 50 53 55 57 59 60 60 63 69 74 78 82 86 88 90 92 93 95 98 102 107 111 114 117 120 121 123 127 131 134 136 139 142 144 146 149 151 152 154 155
213 215 216 217 220 225 235 247 259 272 288 299 290 233 196 189 183 174 169 168 170 169 160 140 125 122 126 128 113 63 44 40 41 46 48 45 40 36 30 25 30 38 42 42 42 45 48 51 54 57 62 66 69 69 70 72 75 77 80 84 86 89 91 92 94 97 101 105 108 111 115 118 119 119 121 123 125 128 132 135 136 138 142 145 147 149 152
216 215 217 221 224 228 236 245 253 265 282 291 272 217 195 187 178 173 172 172 174 173 166 155 141 127 126 130 118 78 51 40 38 45 54 55 51 48 44 39 39 42 45 47 48 49 49 52 56 60 64 70 75 79 81 82 82 83 85 86 87 89 90 92 94 97 100 102 104 107 111 114 116 117 118 120 121 124 128 130 132 134 137 140 143 146 148
217 214 217 223 226 229 235 241 245 252 270 283 265 220 197 186 180 179 179 178 181 181 178 171 159 136 122 120 106 79 56 40 33 38 49 54 54 53 52 48 46 46 50 53 55 55 54 55 58 62 67 73 79 83 85 86 87 89 91 92 93 94 94 95 96 98 100 101 103 106 109 112 114 116 117 118 119 122 124 125 128 130 133 135 138 140 143
218 217 220 223 226 227 231 235 240 248 263 278 266 223 200 189 184 182 179 179 186 190 189 184 174 156 138 127 112 91 69 54 49 49 48 45 43 43 46 47 48 50 55 59 60 60 60 59 60 63 69 75 80 84 87 89 90 91 93 94 95 96 97 97 97 99 101 102 104 107 109 111 113 114 116 117 118 119 120 121 124 127 129 131 134 136 139
222 222 221 222 225 228 231 234 240 249 259 270 256 219 203 195 189 186 183 181 188 197 201 199 192 179 160 144 134 124 104 80 69 66 65 67 65 57 52 50 50 54 60 63 63 63 63 63 65 68 72 77 82 85 88 91 92 92 93 94 94 95 96 98 99 100 102 104 105 107 108 110 111 111 112 114 115 115 117 119 121 122 125 129 133 137 142
222 221 219 220 225 231 234 234 236 240 242 240 232 221 209 200 194 191 189 183 181 189 197 200 199 194 183 170 161 158 145 121 97 83 80 83 83 74 63 57 57 60 63 65 64 64 65 67 70 73 76 80 84 88 89 91 93 93 93 92 93 93 94 96 99 101 102 104 105 105 106 107 108 109 110 111 111 113 115 118 118 120 125 132 139 146 155
220 221 221 222 225 230 233 230 223 220 221 227 237 235 219 204 197 195 192 188 186 187 188 194 200 198 194 194 194 179 162 139 111 93 89 87 82 77 70 65 65 67 71 71 70 69 70 73 75 77 79 82 85 88 91 92 93 93 92 91 90 90 91 94 97 99 101 101 101 101 100 101 102 103 104 103 102 102 102 103 104 105 109 112 116 121 129
220 224 227 225 224 226 226 219 214 218 225 233 244 245 226 205 196 195 196 194 192 191 189 188 191 190 188 187 187 183 175 161 138 130 123 100 79 73 78 77 72 71 73 75 75 76 77 80 80 80 81 83 86 90 92 94 95 95 94 93 93 93 94 96 98 100 101 101 101 100 100 101 101 101 100 100 100 100 99 99 98 99 100 101 102 103 105
216 219 221 220 219 221 220 216 217 225 230 234 243 244 224 201 194 198 201 199 197 197 196 194 191 187 182 176 173 177 180 173 160 157 162 158 100 78 89 98 92 82 76 77 80 83 86 88 87 84 82 83 86 90 92 94 95 96 98 99 99 98 97 97 98 100 101 101 101 100 100 101 103 103 101 100 101 103 104 103 102 100 99 98 97 96 97
211 213 217 220 223 226 226 225 227 231 233 235 240 237 219 203 202 206 206 202 200 199 197 196 198 199 194 185 177 175 173 168 165 169 182 192 178 130 110 117 120 106 90 84 86 89 91 92 92 91 89 88 89 92 95 95 95 95 98 101 103 102 101 99 99 99 99 97 95 94 95 99 103 104 102 98 97 98 100 103 104 102 101 99 96 94 93
215 217 221 224 227 231 233 234 234 235 234 233 234 230 219 210 208 207 206 205 206 206 203 201 205 207 205 198 192 186 179 175 176 179 178 174 169 154 136 132 134 127 111 99 96 97 97 96 94 95 95 95 94 96 99 99 96 95 98 101 103 103 102 101 100 101 101 97 91 88 89 92 96 99 100 99 96 93 92 95 99 102 102 101 99 95 92